Rocky Mountain Metropolitan Airport Denver US
ICAO: KBJC
IATA: BJC
Category: Medium
Scheduled Services: No

Elevation: 5673 ft
TransAlt. 18000 ft.

Airport Communications:
DENVER APP/DEP:126.1
ATIS:126.25
CTAF:118.6
GND:121.7
TWR:118.6

KBJC Zoom In..

Runways:

(A) RW 02 length 3600 ft width 75 ft
---- / hdg 23

(B) RW 11L length 9000 ft width 100 ft
---- / hdg 113

(C) RW 11R length 7002 ft width 75 ft
---- / hdg 113

(D) RW 20 length 3600 ft width 75 ft
---- / hdg 203

(E) RW 29L length 7002 ft width 75 ft
---- / hdg 293

(F) RW 29R length 9000 ft width 100 ft
ILS 111.70 / hdg 293

Location; KBJC
Day. 16 / Time. 17.48 Zulu
* Altimeter: 30.28
* Temperature: 23° c. 73.4°f.
* Wind from: 020° Speed 06 kn.
Dewpoint: 15° c.
Visibility: 30 Statute Miles.
Clouds: Scattered 5000 ft.
Clouds: Scattered 2000 ft.

KBJC 161748Z 02006KT 30SM SCT050 SCT200 23/15 A3028


Wind From 020°
Speed 06 kn.

 
 
jpsmedia.com for Web Design worldairports.se 2018   terms of use